KUIPER-00052

Last updated on Thu Jul 03 2025 00:02:08 GMT+0000 (Coordinated Universal Time)

1 64512U 25134N 25183.58335648 .00002137 00000+0 72193-4 0 9992 2 64512 51.8765 286.9442 0004992 137.3414 328.7432 15.35395435 1300
UTC large
Height (km)
Speed (km/s)
/
Latitude / Longitude
Inclination (degrees)
Orbital Period (minutes)
Azimuth
Elevation
Range (km)
Doppler Factor

Next 0 passes for location: London (51.5072 / 0.1276)

Sorry there are no passes over London.